TimeEST,TemperatureF,Dew PointF,Humidity,Sea Level PressureIn,VisibilityMPH,Wind Direction,Wind SpeedMPH,Gust SpeedMPH,PrecipitationIn,Events,Conditions,WindDirDegrees,DateUTC
12:15 AM,47.1,47.1,100,30.03,10.0,North,-9999.0,-,N/A,,Clear,0,2013-12-05 05:15:00
12:35 AM,46.8,46.8,100,30.03,10.0,North,-9999.0,-,N/A,,Clear,0,2013-12-05 05:35:00
12:55 AM,45.7,45.7,100,30.02,10.0,North,-9999.0,-,N/A,,Clear,0,2013-12-05 05:55:00
1:15 AM,45.0,45.0,100,30.02,10.0,North,-9999.0,-,N/A,,Clear,0,2013-12-05 06:15:00
1:35 AM,44.4,44.4,100,30.02,10.0,North,-9999.0,-,N/A,,Clear,0,2013-12-05 06:35:00
1:55 AM,44.6,44.6,100,30.03,10.0,North,-9999.0,-,N/A,,Clear,0,2013-12-05 06:55:00
2:15 AM,44.1,44.1,100,30.03,10.0,North,-9999.0,-,N/A,,Clear,0,2013-12-05 07:15:00
2:35 AM,44.1,44.1,100,30.03,10.0,North,-9999.0,-,N/A,,Clear,0,2013-12-05 07:35:00
2:55 AM,44.1,44.1,100,30.03,10.0,North,-9999.0,-,N/A,,Clear,0,2013-12-05 07:55:00
3:15 AM,43.9,43.9,100,30.03,7.0,North,-9999.0,-,N/A,,Clear,0,2013-12-05 08:15:00
3:35 AM,43.7,43.7,100,30.04,10.0,North,-9999.0,-,N/A,,Clear,0,2013-12-05 08:35:00
3:55 AM,44.2,44.2,100,30.04,7.0,North,-9999.0,-,N/A,,Clear,0,2013-12-05 08:55:00
4:15 AM,44.6,44.6,100,30.04,10.0,North,-9999.0,-,N/A,,Clear,0,2013-12-05 09:15:00
4:35 AM,45.0,45.0,100,30.04,10.0,North,-9999.0,-,N/A,,Scattered Clouds,0,2013-12-05 09:35:00
4:55 AM,45.5,45.5,100,30.04,10.0,North,-9999.0,-,N/A,,Mostly Cloudy,0,2013-12-05 09:55:00
5:15 AM,46.0,46.0,100,30.04,7.0,North,-9999.0,-,N/A,,Mostly Cloudy,0,2013-12-05 10:15:00
5:35 AM,47.1,47.1,100,30.04,7.0,North,-9999.0,-,N/A,,Mostly Cloudy,0,2013-12-05 10:35:00
5:55 AM,47.3,47.3,100,30.05,5.0,North,-9999.0,-,N/A,,Scattered Clouds,0,2013-12-05 10:55:00
6:15 AM,47.1,47.1,100,30.05,5.0,North,-9999.0,-,N/A,,Clear,0,2013-12-05 11:15:00
6:35 AM,46.9,46.9,100,30.06,5.0,North,-9999.0,-,N/A,,Scattered Clouds,0,2013-12-05 11:35:00
6:55 AM,47.3,47.3,100,30.05,7.0,North,-9999.0,-,N/A,,Mostly Cloudy,0,2013-12-05 11:55:00
7:15 AM,47.7,47.7,100,30.06,5.0,North,-9999.0,-,N/A,,Mostly Cloudy,0,2013-12-05 12:15:00
7:35 AM,48.2,48.2,100,30.06,7.0,North,-9999.0,-,N/A,,Mostly Cloudy,0,2013-12-05 12:35:00
7:55 AM,48.7,48.7,100,30.06,5.0,North,-9999.0,-,N/A,,Mostly Cloudy,0,2013-12-05 12:55:00
8:15 AM,49.1,49.1,100,30.06,5.0,North,-9999.0,-,N/A,,Scattered Clouds,0,2013-12-05 13:15:00
8:35 AM,50.2,50.2,100,30.06,7.0,North,-9999.0,-,N/A,,Scattered Clouds,0,2013-12-05 13:35:00
8:55 AM,50.9,50.9,100,30.07,5.0,North,-9999.0,-,N/A,,Scattered Clouds,0,2013-12-05 13:55:00
9:15 AM,52.5,52.5,100,30.06,7.0,North,-9999.0,-,N/A,,Scattered Clouds,0,2013-12-05 14:15:00
9:35 AM,54.7,54.7,100,30.06,7.0,North,-9999.0,-,N/A,,Clear,0,2013-12-05 14:35:00
9:55 AM,56.1,55.6,98,30.06,10.0,North,-9999.0,-,N/A,,Clear,0,2013-12-05 14:55:00
10:15 AM,57.6,56.7,97,30.07,10.0,North,-9999.0,-,N/A,,Clear,0,2013-12-05 15:15:00
10:35 AM,60.1,57.6,91,30.08,10.0,North,-9999.0,-,N/A,,Clear,0,2013-12-05 15:35:00
10:55 AM,61.7,57.7,87,30.06,10.0,North,-9999.0,-,N/A,,Scattered Clouds,0,2013-12-05 15:55:00
11:15 AM,65.1,58.6,79,30.06,10.0,North,-9999.0,-,N/A,,Scattered Clouds,0,2013-12-05 16:15:00
11:55 AM,68.4,57.9,69,30.05,10.0,North,-9999.0,-,N/A,,Clear,0,2013-12-05 16:55:00
12:15 PM,70.0,58.3,66,30.04,10.0,North,-9999.0,-,N/A,,Clear,0,2013-12-05 17:15:00
12:35 PM,70.2,58.3,66,30.04,10.0,North,-9999.0,-,N/A,,Clear,0,2013-12-05 17:35:00
12:55 PM,69.8,58.1,66,30.03,10.0,North,-9999.0,-,N/A,,Clear,0,2013-12-05 17:55:00
1:15 PM,70.2,58.3,66,30.02,10.0,North,-9999.0,-,N/A,,Clear,0,2013-12-05 18:15:00
1:35 PM,70.7,58.5,65,30.01,10.0,North,-9999.0,-,N/A,,Clear,0,2013-12-05 18:35:00
1:55 PM,70.3,58.5,66,30.01,10.0,North,-9999.0,-,N/A,,Scattered Clouds,0,2013-12-05 18:55:00
2:15 PM,70.5,58.5,66,30.00,10.0,North,-9999.0,-,N/A,,Scattered Clouds,0,2013-12-05 19:15:00
2:35 PM,70.7,58.8,66,30.00,10.0,North,-9999.0,-,N/A,,Mostly Cloudy,0,2013-12-05 19:35:00
2:55 PM,69.8,59.4,69,29.99,10.0,North,-9999.0,-,N/A,,Overcast,0,2013-12-05 19:55:00
3:15 PM,68.4,59.5,73,29.99,10.0,North,-9999.0,-,N/A,,Overcast,0,2013-12-05 20:15:00
3:35 PM,68.9,59.5,72,29.99,10.0,North,-9999.0,-,N/A,,Overcast,0,2013-12-05 20:35:00
3:55 PM,69.6,59.4,70,29.99,10.0,North,-9999.0,-,N/A,,Overcast,0,2013-12-05 20:55:00
4:15 PM,66.9,59.7,78,30.00,10.0,North,-9999.0,-,N/A,Rain,Light Rain,0,2013-12-05 21:15:00
4:35 PM,65.7,59.9,82,30.00,10.0,North,-9999.0,-,N/A,,Overcast,0,2013-12-05 21:35:00
4:55 PM,63.9,60.4,89,30.01,10.0,North,-9999.0,-,N/A,Rain,Light Rain,0,2013-12-05 21:55:00
5:15 PM,62.1,61.2,97,30.02,5.0,North,-9999.0,-,N/A,Rain,Light Rain,0,2013-12-05 22:15:00
5:35 PM,61.7,61.3,99,30.01,4.0,North,-9999.0,-,N/A,Rain,Light Rain,0,2013-12-05 22:35:00
5:55 PM,61.0,61.0,100,30.01,3.0,North,-9999.0,-,N/A,Rain,Light Rain,0,2013-12-05 22:55:00
6:15 PM,60.3,60.3,100,30.01,1.8,North,-9999.0,-,N/A,Rain,Rain,0,2013-12-05 23:15:00
6:35 PM,60.4,60.4,100,30.01,2.5,North,-9999.0,-,N/A,Rain,Light Rain,0,2013-12-05 23:35:00
6:55 PM,60.4,60.4,100,30.01,1.5,North,-9999.0,-,N/A,Rain,Rain,0,2013-12-05 23:55:00
7:15 PM,60.3,60.3,100,30.01,1.0,North,-9999.0,-,N/A,Rain,Rain,0,2013-12-06 00:15:00
7:35 PM,60.1,60.1,100,29.99,1.8,North,-9999.0,-,N/A,Rain,Light Rain,0,2013-12-06 00:35:00
7:55 PM,59.9,59.9,100,29.99,0.8,North,-9999.0,-,N/A,,Overcast,0,2013-12-06 00:55:00
8:15 PM,59.2,59.2,100,29.99,0.8,North,-9999.0,-,N/A,Rain,Light Rain,0,2013-12-06 01:15:00
8:35 PM,59.0,59.0,100,29.98,0.8,North,-9999.0,-,N/A,,Overcast,0,2013-12-06 01:35:00
8:55 PM,58.8,58.8,100,29.98,1.0,North,-9999.0,-,N/A,,Overcast,0,2013-12-06 01:55:00
9:15 PM,58.5,58.5,100,29.97,1.2,North,-9999.0,-,N/A,,Overcast,0,2013-12-06 02:15:00
9:35 PM,59.0,59.0,100,29.98,1.0,North,-9999.0,-,N/A,,Overcast,0,2013-12-06 02:35:00
9:55 PM,60.8,60.8,100,29.99,4.0,North,-9999.0,-,N/A,,Drizzle,0,2013-12-06 02:55:00
10:15 PM,60.1,60.1,100,30.00,2.0,North,-9999.0,-,N/A,,Drizzle,0,2013-12-06 03:15:00
10:35 PM,59.5,59.5,100,30.01,1.0,North,-9999.0,-,N/A,,Drizzle,0,2013-12-06 03:35:00
10:55 PM,59.4,59.4,100,30.01,1.0,North,-9999.0,-,N/A,,Overcast,0,2013-12-06 03:55:00
11:15 PM,59.2,59.2,100,30.02,1.0,North,-9999.0,-,N/A,Rain,Heavy Rain,0,2013-12-06 04:15:00
11:35 PM,59.2,59.2,100,30.01,1.2,North,-9999.0,-,N/A,,Light Drizzle,0,2013-12-06 04:35:00
11:55 PM,60.1,60.1,100,30.00,2.0,North,-9999.0,-,N/A,,Overcast,0,2013-12-06 04:55:00